owner,sensor,date,latitude,longitude,vertical_datum,sea_water_temperature,qcFlag 
ENP,ioos.station.NOAA.NDBC:LBRF1:1,2017-02-01T00:00:00Z,25.4840,-81.1330,1.0,19.92,2 
ENP,ioos.station.NOAA.NDBC:LBRF1:1,2017-02-01T01:00:00Z,25.4840,-81.1330,1.0,20.01,2 
ENP,ioos.station.NOAA.NDBC:LBRF1:1,2017-02-01T03:00:00Z,25.4840,-81.1330,1.0,19.3,11111222 
ENP,ioos.station.NOAA.NDBC:LBRF1:1,2017-02-01T04:00:00Z,25.4840,-81.1330,1.0,19.14,2 
ENP,ioos.station.NOAA.NDBC:LBRF1:1,2017-02-01T06:00:00Z,25.4840,-81.1330,1.0,19.0,11111222 
ENP,ioos.station.NOAA.NDBC:LBRF1:1,2017-02-01T07:00:00Z,25.4840,-81.1330,1.0,19.02,2 
ENP,ioos.station.NOAA.NDBC:LBRF1:1,2017-02-01T08:00:00Z,25.4840,-81.1330,1.0,19.12,2 
ENP,ioos.station.NOAA.NDBC:LBRF1:1,2017-02-01T09:00:00Z,25.4840,-81.1330,1.0,19.36,2 
ENP,ioos.station.NOAA.NDBC:LBRF1:1,2017-02-01T10:00:00Z,25.4840,-81.1330,1.0,19.08,2 
ENP,ioos.station.NOAA.NDBC:LBRF1:1,2017-02-01T11:00:00Z,25.4840,-81.1330,1.0,19.0,11111222 
ENP,ioos.station.NOAA.NDBC:LBRF1:1,2017-02-01T12:00:00Z,25.4840,-81.1330,1.0,19.0,11111222 
ENP,ioos.station.NOAA.NDBC:LBRF1:1,2017-02-01T13:00:00Z,25.4840,-81.1330,1.0,19.1,11111222 
ENP,ioos.station.NOAA.NDBC:LBRF1:1,2017-02-01T14:00:00Z,25.4840,-81.1330,1.0,19.1,11111222 
ENP,ioos.station.NOAA.NDBC:LBRF1:1,2017-02-01T15:00:00Z,25.4840,-81.1330,1.0,19.07,2 
ENP,ioos.station.NOAA.NDBC:LBRF1:1,2017-02-01T16:00:00Z,25.4840,-81.1330,1.0,19.05,2 
ENP,ioos.station.NOAA.NDBC:LBRF1:1,2017-02-01T17:00:00Z,25.4840,-81.1330,1.0,19.18,2 
ENP,ioos.station.NOAA.NDBC:LBRF1:1,2017-02-01T18:00:00Z,25.4840,-81.1330,1.0,19.32,2 
ENP,ioos.station.NOAA.NDBC:LBRF1:1,2017-02-01T19:00:00Z,25.4840,-81.1330,1.0,19.4,11111222 
ENP,ioos.station.NOAA.NDBC:LBRF1:1,2017-02-01T20:00:00Z,25.4840,-81.1330,1.0,19.7,11111222 
ENP,ioos.station.NOAA.NDBC:LBRF1:1,2017-02-01T21:00:00Z,25.4840,-81.1330,1.0,20.19,2 
ENP,ioos.station.NOAA.NDBC:LBRF1:1,2017-02-01T22:00:00Z,25.4840,-81.1330,1.0,20.75,2 
ENP,ioos.station.NOAA.NDBC:LBRF1:1,2017-02-01T23:00:00Z,25.4840,-81.1330,1.0,20.65,2 
ENP,ioos.station.NOAA.NDBC:LBRF1:1,2017-02-02T00:00:00Z,25.4840,-81.1330,1.0,20.59,2 
ENP,ioos.station.NOAA.NDBC:LBRF1:1,2017-02-02T01:00:00Z,25.4840,-81.1330,1.0,20.6,11111222 
ENP,ioos.station.NOAA.NDBC:LBRF1:1,2017-02-02T03:00:00Z,25.4840,-81.1330,1.0,20.4,11111222 
ENP,ioos.station.NOAA.NDBC:LBRF1:1,2017-02-02T04:00:00Z,25.4840,-81.1330,1.0,19.89,2 
ENP,ioos.station.NOAA.NDBC:LBRF1:1,2017-02-02T05:00:00Z,25.4840,-81.1330,1.0,19.5,11111222 
ENP,ioos.station.NOAA.NDBC:LBRF1:1,2017-02-02T06:00:00Z,25.4840,-81.1330,1.0,19.41,2 
ENP,ioos.station.NOAA.NDBC:LBRF1:1,2017-02-02T07:00:00Z,25.4840,-81.1330,1.0,19.37,2 
ENP,ioos.station.NOAA.NDBC:LBRF1:1,2017-02-02T08:00:00Z,25.4840,-81.1330,1.0,19.37,2 
ENP,ioos.station.NOAA.NDBC:LBRF1:1,2017-02-02T09:00:00Z,25.4840,-81.1330,1.0,19.72,2 
ENP,ioos.station.NOAA.NDBC:LBRF1:1,2017-02-02T10:00:00Z,25.4840,-81.1330,1.0,20.0,11111222 
ENP,ioos.station.NOAA.NDBC:LBRF1:1,2017-02-02T11:00:00Z,25.4840,-81.1330,1.0,19.94,2 
ENP,ioos.station.NOAA.NDBC:LBRF1:1,2017-02-02T12:00:00Z,25.4840,-81.1330,1.0,19.93,2 
ENP,ioos.station.NOAA.NDBC:LBRF1:1,2017-02-02T13:00:00Z,25.4840,-81.1330,1.0,19.89,2 
ENP,ioos.station.NOAA.NDBC:LBRF1:1,2017-02-02T14:00:00Z,25.4840,-81.1330,1.0,19.89,2 
ENP,ioos.station.NOAA.NDBC:LBRF1:1,2017-02-02T15:00:00Z,25.4840,-81.1330,1.0,19.83,2 
ENP,ioos.station.NOAA.NDBC:LBRF1:1,2017-02-02T16:00:00Z,25.4840,-81.1330,1.0,19.61,2 
ENP,ioos.station.NOAA.NDBC:LBRF1:1,2017-02-02T17:00:00Z,25.4840,-81.1330,1.0,19.63,2 
ENP,ioos.station.NOAA.NDBC:LBRF1:1,2017-02-02T18:00:00Z,25.4840,-81.1330,1.0,19.8,11111222 
ENP,ioos.station.NOAA.NDBC:LBRF1:1,2017-02-02T19:00:00Z,25.4840,-81.1330,1.0,19.88,2 
ENP,ioos.station.NOAA.NDBC:LBRF1:1,2017-02-02T20:00:00Z,25.4840,-81.1330,1.0,19.94,2 
ENP,ioos.station.NOAA.NDBC:LBRF1:1,2017-02-02T21:00:00Z,25.4840,-81.1330,1.0,20.42,2 
ENP,ioos.station.NOAA.NDBC:LBRF1:1,2017-02-02T22:00:00Z,25.4840,-81.1330,1.0,21.13,2 
ENP,ioos.station.NOAA.NDBC:LBRF1:1,2017-02-02T23:00:00Z,25.4840,-81.1330,1.0,21.66,2 
ENP,ioos.station.NOAA.NDBC:LBRF1:1,2017-02-03T00:00:00Z,25.4840,-81.1330,1.0,21.6,11111222 
ENP,ioos.station.NOAA.NDBC:LBRF1:1,2017-02-03T01:00:00Z,25.4840,-81.1330,1.0,21.56,2 
ENP,ioos.station.NOAA.NDBC:LBRF1:1,2017-02-03T02:00:00Z,25.4840,-81.1330,1.0,21.5,11111222 
ENP,ioos.station.NOAA.NDBC:LBRF1:1,2017-02-03T03:00:00Z,25.4840,-81.1330,1.0,21.34,2 
ENP,ioos.station.NOAA.NDBC:LBRF1:1,2017-02-03T04:00:00Z,25.4840,-81.1330,1.0,21.0,11111222 
ENP,ioos.station.NOAA.NDBC:LBRF1:1,2017-02-03T05:00:00Z,25.4840,-81.1330,1.0,20.4,11111222 
ENP,ioos.station.NOAA.NDBC:LBRF1:1,2017-02-03T06:00:00Z,25.4840,-81.1330,1.0,20.07,2 
ENP,ioos.station.NOAA.NDBC:LBRF1:1,2017-02-03T07:00:00Z,25.4840,-81.1330,1.0,20.0,11111222 
ENP,ioos.station.NOAA.NDBC:LBRF1:1,2017-02-03T08:00:00Z,25.4840,-81.1330,1.0,20.0,11111222 
ENP,ioos.station.NOAA.NDBC:LBRF1:1,2017-02-03T09:00:00Z,25.4840,-81.1330,1.0,20.01,2 
ENP,ioos.station.NOAA.NDBC:LBRF1:1,2017-02-03T10:00:00Z,25.4840,-81.1330,1.0,19.97,2 
ENP,ioos.station.NOAA.NDBC:LBRF1:1,2017-02-03T11:00:00Z,25.4840,-81.1330,1.0,20.5,11111222 
ENP,ioos.station.NOAA.NDBC:LBRF1:1,2017-02-03T12:00:00Z,25.4840,-81.1330,1.0,20.8,11111222 
ENP,ioos.station.NOAA.NDBC:LBRF1:1,2017-02-03T13:00:00Z,25.4840,-81.1330,1.0,20.9,11111222 
ENP,ioos.station.NOAA.NDBC:LBRF1:1,2017-02-03T14:00:00Z,25.4840,-81.1330,1.0,20.9,11111222 
ENP,ioos.station.NOAA.NDBC:LBRF1:1,2017-02-03T15:00:00Z,25.4840,-81.1330,1.0,20.7,11111222 
ENP,ioos.station.NOAA.NDBC:LBRF1:1,2017-02-03T16:00:00Z,25.4840,-81.1330,1.0,20.5,11111222 
ENP,ioos.station.NOAA.NDBC:LBRF1:1,2017-02-03T17:00:00Z,25.4840,-81.1330,1.0,20.4,11111222 
ENP,ioos.station.NOAA.NDBC:LBRF1:1,2017-02-03T18:00:00Z,25.4840,-81.1330,1.0,20.6,11111222 
ENP,ioos.station.NOAA.NDBC:LBRF1:1,2017-02-03T19:00:00Z,25.4840,-81.1330,1.0,20.8,11111222 
ENP,ioos.station.NOAA.NDBC:LBRF1:1,2017-02-03T20:00:00Z,25.4840,-81.1330,1.0,20.8,11111222 
ENP,ioos.station.NOAA.NDBC:LBRF1:1,2017-02-03T21:00:00Z,25.4840,-81.1330,1.0,20.97,2 
ENP,ioos.station.NOAA.NDBC:LBRF1:1,2017-02-03T22:00:00Z,25.4840,-81.1330,1.0,21.53,2 
ENP,ioos.station.NOAA.NDBC:LBRF1:1,2017-02-03T23:00:00Z,25.4840,-81.1330,1.0,22.44,2 
ENP,ioos.station.NOAA.NDBC:LBRF1:1,2017-02-04T00:00:00Z,25.4840,-81.1330,1.0,22.67,2 
ENP,ioos.station.NOAA.NDBC:LBRF1:1,2017-02-04T01:00:00Z,25.4840,-81.1330,1.0,22.77,2 
ENP,ioos.station.NOAA.NDBC:LBRF1:1,2017-02-04T02:00:00Z,25.4840,-81.1330,1.0,22.8,11111222 
ENP,ioos.station.NOAA.NDBC:LBRF1:1,2017-02-04T03:00:00Z,25.4840,-81.1330,1.0,22.6,11111222 
ENP,ioos.station.NOAA.NDBC:LBRF1:1,2017-02-04T04:00:00Z,25.4840,-81.1330,1.0,22.4,11111222 
ENP,ioos.station.NOAA.NDBC:LBRF1:1,2017-02-04T05:00:00Z,25.4840,-81.1330,1.0,21.85,2 
ENP,ioos.station.NOAA.NDBC:LBRF1:1,2017-02-04T06:00:00Z,25.4840,-81.1330,1.0,21.2,11111222 
ENP,ioos.station.NOAA.NDBC:LBRF1:1,2017-02-04T07:00:00Z,25.4840,-81.1330,1.0,20.9,11111222 
ENP,ioos.station.NOAA.NDBC:LBRF1:1,2017-02-04T08:00:00Z,25.4840,-81.1330,1.0,20.8,11111222 
ENP,ioos.station.NOAA.NDBC:LBRF1:1,2017-02-04T09:00:00Z,25.4840,-81.1330,1.0,20.85,2 
ENP,ioos.station.NOAA.NDBC:LBRF1:1,2017-02-04T10:00:00Z,25.4840,-81.1330,1.0,20.9,11111222 
ENP,ioos.station.NOAA.NDBC:LBRF1:1,2017-02-04T11:00:00Z,25.4840,-81.1330,1.0,20.85,2 
ENP,ioos.station.NOAA.NDBC:LBRF1:1,2017-02-04T12:00:00Z,25.4840,-81.1330,1.0,20.64,2 
ENP,ioos.station.NOAA.NDBC:LBRF1:1,2017-02-04T13:00:00Z,25.4840,-81.1330,1.0,20.78,2 
ENP,ioos.station.NOAA.NDBC:LBRF1:1,2017-02-04T14:00:00Z,25.4840,-81.1330,1.0,21.06,2 
ENP,ioos.station.NOAA.NDBC:LBRF1:1,2017-02-04T15:00:00Z,25.4840,-81.1330,1.0,20.97,2 
ENP,ioos.station.NOAA.NDBC:LBRF1:1,2017-02-04T16:00:00Z,25.4840,-81.1330,1.0,20.91,2 
ENP,ioos.station.NOAA.NDBC:LBRF1:1,2017-02-04T17:00:00Z,25.4840,-81.1330,1.0,21.16,2 
ENP,ioos.station.NOAA.NDBC:LBRF1:1,2017-02-04T18:00:00Z,25.4840,-81.1330,1.0,21.49,2 
ENP,ioos.station.NOAA.NDBC:LBRF1:1,2017-02-04T19:00:00Z,25.4840,-81.1330,1.0,21.79,2 
ENP,ioos.station.NOAA.NDBC:LBRF1:1,2017-02-04T20:00:00Z,25.4840,-81.1330,1.0,21.99,2 
ENP,ioos.station.NOAA.NDBC:LBRF1:1,2017-02-04T21:00:00Z,25.4840,-81.1330,1.0,22.0,11111222 
ENP,ioos.station.NOAA.NDBC:LBRF1:1,2017-02-04T22:00:00Z,25.4840,-81.1330,1.0,21.6,11111222 
ENP,ioos.station.NOAA.NDBC:LBRF1:1,2017-02-04T23:00:00Z,25.4840,-81.1330,1.0,22.2,11111222 
ENP,ioos.station.NOAA.NDBC:LBRF1:1,2017-02-05T00:00:00Z,25.4840,-81.1330,1.0,22.73,2 
ENP,ioos.station.NOAA.NDBC:LBRF1:1,2017-02-05T01:00:00Z,25.4840,-81.1330,1.0,22.93,2 
ENP,ioos.station.NOAA.NDBC:LBRF1:1,2017-02-05T02:00:00Z,25.4840,-81.1330,1.0,23.09,2 
ENP,ioos.station.NOAA.NDBC:LBRF1:1,2017-02-05T03:00:00Z,25.4840,-81.1330,1.0,23.2,11111222 
ENP,ioos.station.NOAA.NDBC:LBRF1:1,2017-02-05T04:00:00Z,25.4840,-81.1330,1.0,23.0,11111222 
ENP,ioos.station.NOAA.NDBC:LBRF1:1,2017-02-05T05:00:00Z,25.4840,-81.1330,1.0,22.8,11111222 
ENP,ioos.station.NOAA.NDBC:LBRF1:1,2017-02-05T06:00:00Z,25.4840,-81.1330,1.0,22.62,2 
ENP,ioos.station.NOAA.NDBC:LBRF1:1,2017-02-05T07:00:00Z,25.4840,-81.1330,1.0,22.2,11111222 
ENP,ioos.station.NOAA.NDBC:LBRF1:1,2017-02-05T08:00:00Z,25.4840,-81.1330,1.0,21.8,11111222 
ENP,ioos.station.NOAA.NDBC:LBRF1:1,2017-02-05T09:00:00Z,25.4840,-81.1330,1.0,21.8,11111222 
ENP,ioos.station.NOAA.NDBC:LBRF1:1,2017-02-05T10:00:00Z,25.4840,-81.1330,1.0,21.7,11111222 
ENP,ioos.station.NOAA.NDBC:LBRF1:1,2017-02-05T11:00:00Z,25.4840,-81.1330,1.0,21.72,2 
ENP,ioos.station.NOAA.NDBC:LBRF1:1,2017-02-05T12:00:00Z,25.4840,-81.1330,1.0,21.7,11111222 
ENP,ioos.station.NOAA.NDBC:LBRF1:1,2017-02-05T13:00:00Z,25.4840,-81.1330,1.0,21.7,11111222 
ENP,ioos.station.NOAA.NDBC:LBRF1:1,2017-02-05T14:00:00Z,25.4840,-81.1330,1.0,22.0,11111222 
ENP,ioos.station.NOAA.NDBC:LBRF1:1,2017-02-05T15:00:00Z,25.4840,-81.1330,1.0,22.2,11111222 
ENP,ioos.station.NOAA.NDBC:LBRF1:1,2017-02-05T16:00:00Z,25.4840,-81.1330,1.0,22.24,2 
ENP,ioos.station.NOAA.NDBC:LBRF1:1,2017-02-05T17:00:00Z,25.4840,-81.1330,1.0,22.25,2 
ENP,ioos.station.NOAA.NDBC:LBRF1:1,2017-02-05T18:00:00Z,25.4840,-81.1330,1.0,22.73,2 
ENP,ioos.station.NOAA.NDBC:LBRF1:1,2017-02-05T19:00:00Z,25.4840,-81.1330,1.0,22.61,2 
ENP,ioos.station.NOAA.NDBC:LBRF1:1,2017-02-05T20:00:00Z,25.4840,-81.1330,1.0,22.58,2 
ENP,ioos.station.NOAA.NDBC:LBRF1:1,2017-02-05T21:00:00Z,25.4840,-81.1330,1.0,22.7,11111222 
ENP,ioos.station.NOAA.NDBC:LBRF1:1,2017-02-05T22:00:00Z,25.4840,-81.1330,1.0,22.6,11111222 
ENP,ioos.station.NOAA.NDBC:LBRF1:1,2017-02-05T23:00:00Z,25.4840,-81.1330,1.0,22.6,11111222 
ENP,ioos.station.NOAA.NDBC:LBRF1:1,2017-02-06T00:00:00Z,25.4840,-81.1330,1.0,23.0,11111222 
ENP,ioos.station.NOAA.NDBC:LBRF1:1,2017-02-06T01:00:00Z,25.4840,-81.1330,1.0,23.0,11111222 
ENP,ioos.station.NOAA.NDBC:LBRF1:1,2017-02-06T02:00:00Z,25.4840,-81.1330,1.0,23.6,11111222 
ENP,ioos.station.NOAA.NDBC:LBRF1:1,2017-02-06T03:00:00Z,25.4840,-81.1330,1.0,23.66,2 
ENP,ioos.station.NOAA.NDBC:LBRF1:1,2017-02-06T04:00:00Z,25.4840,-81.1330,1.0,23.73,2 
ENP,ioos.station.NOAA.NDBC:LBRF1:1,2017-02-06T05:00:00Z,25.4840,-81.1330,1.0,23.6,11111222 
ENP,ioos.station.NOAA.NDBC:LBRF1:1,2017-02-06T06:00:00Z,25.4840,-81.1330,1.0,23.29,2 
ENP,ioos.station.NOAA.NDBC:LBRF1:1,2017-02-06T07:00:00Z,25.4840,-81.1330,1.0,22.91,2 
ENP,ioos.station.NOAA.NDBC:LBRF1:1,2017-02-06T08:00:00Z,25.4840,-81.1330,1.0,22.64,2 
ENP,ioos.station.NOAA.NDBC:LBRF1:1,2017-02-06T09:00:00Z,25.4840,-81.1330,1.0,22.31,2 
ENP,ioos.station.NOAA.NDBC:LBRF1:1,2017-02-06T10:00:00Z,25.4840,-81.1330,1.0,22.26,2 
ENP,ioos.station.NOAA.NDBC:LBRF1:1,2017-02-06T11:00:00Z,25.4840,-81.1330,1.0,22.3,11111222 
ENP,ioos.station.NOAA.NDBC:LBRF1:1,2017-02-06T12:00:00Z,25.4840,-81.1330,1.0,22.4,11111222 
ENP,ioos.station.NOAA.NDBC:LBRF1:1,2017-02-06T13:00:00Z,25.4840,-81.1330,1.0,22.38,2 
ENP,ioos.station.NOAA.NDBC:LBRF1:1,2017-02-06T14:00:00Z,25.4840,-81.1330,1.0,22.2,11111222 
ENP,ioos.station.NOAA.NDBC:LBRF1:1,2017-02-06T15:00:00Z,25.4840,-81.1330,1.0,22.2,11111222 
ENP,ioos.station.NOAA.NDBC:LBRF1:1,2017-02-06T16:00:00Z,25.4840,-81.1330,1.0,22.4,11111222 
ENP,ioos.station.NOAA.NDBC:LBRF1:1,2017-02-06T17:00:00Z,25.4840,-81.1330,1.0,22.5,11111222 
ENP,ioos.station.NOAA.NDBC:LBRF1:1,2017-02-06T18:00:00Z,25.4840,-81.1330,1.0,22.5,11111222 
ENP,ioos.station.NOAA.NDBC:LBRF1:1,2017-02-06T19:00:00Z,25.4840,-81.1330,1.0,22.6,11111222 
ENP,ioos.station.NOAA.NDBC:LBRF1:1,2017-02-06T20:00:00Z,25.4840,-81.1330,1.0,22.8,11111222 
ENP,ioos.station.NOAA.NDBC:LBRF1:1,2017-02-06T21:00:00Z,25.4840,-81.1330,1.0,22.8,11111222 
ENP,ioos.station.NOAA.NDBC:LBRF1:1,2017-02-06T22:00:00Z,25.4840,-81.1330,1.0,22.9,11111222 
ENP,ioos.station.NOAA.NDBC:LBRF1:1,2017-02-06T23:00:00Z,25.4840,-81.1330,1.0,22.9,11111222 
ENP,ioos.station.NOAA.NDBC:LBRF1:1,2017-02-07T00:00:00Z,25.4840,-81.1330,1.0,22.7,11111222 
ENP,ioos.station.NOAA.NDBC:LBRF1:1,2017-02-07T01:00:00Z,25.4840,-81.1330,1.0,22.8,11111222 
ENP,ioos.station.NOAA.NDBC:LBRF1:1,2017-02-07T03:00:00Z,25.4840,-81.1330,1.0,23.0,11111222 
ENP,ioos.station.NOAA.NDBC:LBRF1:1,2017-02-07T04:00:00Z,25.4840,-81.1330,1.0,23.0,11111222 
ENP,ioos.station.NOAA.NDBC:LBRF1:1,2017-02-07T05:00:00Z,25.4840,-81.1330,1.0,23.0,11111222 
ENP,ioos.station.NOAA.NDBC:LBRF1:1,2017-02-07T06:00:00Z,25.4840,-81.1330,1.0,22.95,2 
ENP,ioos.station.NOAA.NDBC:LBRF1:1,2017-02-07T07:00:00Z,25.4840,-81.1330,1.0,22.9,11111222 
ENP,ioos.station.NOAA.NDBC:LBRF1:1,2017-02-07T08:00:00Z,25.4840,-81.1330,1.0,22.82,2 
ENP,ioos.station.NOAA.NDBC:LBRF1:1,2017-02-07T09:00:00Z,25.4840,-81.1330,1.0,22.6,11111222 
ENP,ioos.station.NOAA.NDBC:LBRF1:1,2017-02-07T10:00:00Z,25.4840,-81.1330,1.0,22.41,2 
ENP,ioos.station.NOAA.NDBC:LBRF1:1,2017-02-07T11:00:00Z,25.4840,-81.1330,1.0,22.4,11111222 
ENP,ioos.station.NOAA.NDBC:LBRF1:1,2017-02-07T12:00:00Z,25.4840,-81.1330,1.0,22.5,11111222 
ENP,ioos.station.NOAA.NDBC:LBRF1:1,2017-02-07T13:00:00Z,25.4840,-81.1330,1.0,22.6,11111222 
ENP,ioos.station.NOAA.NDBC:LBRF1:1,2017-02-07T14:00:00Z,25.4840,-81.1330,1.0,22.6,11111222 
ENP,ioos.station.NOAA.NDBC:LBRF1:1,2017-02-07T15:00:00Z,25.4840,-81.1330,1.0,22.5,11111222 
ENP,ioos.station.NOAA.NDBC:LBRF1:1,2017-02-07T16:00:00Z,25.4840,-81.1330,1.0,22.6,11111222 
ENP,ioos.station.NOAA.NDBC:LBRF1:1,2017-02-07T17:00:00Z,25.4840,-81.1330,1.0,22.7,2 
ENP,ioos.station.NOAA.NDBC:LBRF1:1,2017-02-07T18:00:00Z,25.4840,-81.1330,1.0,22.7,11111222 
ENP,ioos.station.NOAA.NDBC:LBRF1:1,2017-02-07T19:00:00Z,25.4840,-81.1330,1.0,22.7,2 
ENP,ioos.station.NOAA.NDBC:LBRF1:1,2017-02-07T20:00:00Z,25.4840,-81.1330,1.0,22.9,11111222 
ENP,ioos.station.NOAA.NDBC:LBRF1:1,2017-02-07T21:00:00Z,25.4840,-81.1330,1.0,23.17,2 
ENP,ioos.station.NOAA.NDBC:LBRF1:1,2017-02-07T22:00:00Z,25.4840,-81.1330,1.0,23.2,11111222 
ENP,ioos.station.NOAA.NDBC:LBRF1:1,2017-02-07T23:00:00Z,25.4840,-81.1330,1.0,23.26,2 
ENP,ioos.station.NOAA.NDBC:LBRF1:1,2017-02-08T00:00:00Z,25.4840,-81.1330,1.0,23.29,2 
ENP,ioos.station.NOAA.NDBC:LBRF1:1,2017-02-08T01:00:00Z,25.4840,-81.1330,1.0,23.2,11111222 
ENP,ioos.station.NOAA.NDBC:LBRF1:1,2017-02-08T03:00:00Z,25.4840,-81.1330,1.0,23.0,11111222 
ENP,ioos.station.NOAA.NDBC:LBRF1:1,2017-02-08T04:00:00Z,25.4840,-81.1330,1.0,23.22,2 
ENP,ioos.station.NOAA.NDBC:LBRF1:1,2017-02-08T05:00:00Z,25.4840,-81.1330,1.0,23.3,11111222 
ENP,ioos.station.NOAA.NDBC:LBRF1:1,2017-02-08T06:00:00Z,25.4840,-81.1330,1.0,23.35,2 
ENP,ioos.station.NOAA.NDBC:LBRF1:1,2017-02-08T07:00:00Z,25.4840,-81.1330,1.0,23.3,11111222 
ENP,ioos.station.NOAA.NDBC:LBRF1:1,2017-02-08T08:00:00Z,25.4840,-81.1330,1.0,23.2,11111222 
ENP,ioos.station.NOAA.NDBC:LBRF1:1,2017-02-08T09:00:00Z,25.4840,-81.1330,1.0,23.1,11111222 
ENP,ioos.station.NOAA.NDBC:LBRF1:1,2017-02-08T10:00:00Z,25.4840,-81.1330,1.0,22.95,2 
ENP,ioos.station.NOAA.NDBC:LBRF1:1,2017-02-08T11:00:00Z,25.4840,-81.1330,1.0,22.8,11111222 
ENP,ioos.station.NOAA.NDBC:LBRF1:1,2017-02-08T12:00:00Z,25.4840,-81.1330,1.0,22.8,11111222 
ENP,ioos.station.NOAA.NDBC:LBRF1:1,2017-02-08T13:00:00Z,25.4840,-81.1330,1.0,22.9,11111222 
ENP,ioos.station.NOAA.NDBC:LBRF1:1,2017-02-08T14:00:00Z,25.4840,-81.1330,1.0,22.96,2 
ENP,ioos.station.NOAA.NDBC:LBRF1:1,2017-02-08T15:00:00Z,25.4840,-81.1330,1.0,23.1,11111222 
ENP,ioos.station.NOAA.NDBC:LBRF1:1,2017-02-08T16:00:00Z,25.4840,-81.1330,1.0,23.1,11111222 
ENP,ioos.station.NOAA.NDBC:LBRF1:1,2017-02-08T17:00:00Z,25.4840,-81.1330,1.0,23.23,2 
ENP,ioos.station.NOAA.NDBC:LBRF1:1,2017-02-08T18:00:00Z,25.4840,-81.1330,1.0,23.5,11111222 
ENP,ioos.station.NOAA.NDBC:LBRF1:1,2017-02-09T08:00:00Z,25.4840,-81.1330,1.0,24.1,11111222 
ENP,ioos.station.NOAA.NDBC:LBRF1:1,2017-02-09T09:00:00Z,25.4840,-81.1330,1.0,23.93,2 
ENP,ioos.station.NOAA.NDBC:LBRF1:1,2017-02-09T10:00:00Z,25.4840,-81.1330,1.0,23.7,11111222 
ENP,ioos.station.NOAA.NDBC:LBRF1:1,2017-02-09T11:00:00Z,25.4840,-81.1330,1.0,23.46,2 
ENP,ioos.station.NOAA.NDBC:LBRF1:1,2017-02-09T12:00:00Z,25.4840,-81.1330,1.0,23.28,2 
ENP,ioos.station.NOAA.NDBC:LBRF1:1,2017-02-09T13:00:00Z,25.4840,-81.1330,1.0,23.3,11111222 
ENP,ioos.station.NOAA.NDBC:LBRF1:1,2017-02-09T14:00:00Z,25.4840,-81.1330,1.0,23.5,11111222 
ENP,ioos.station.NOAA.NDBC:LBRF1:1,2017-02-09T15:00:00Z,25.4840,-81.1330,1.0,23.6,11111222 
ENP,ioos.station.NOAA.NDBC:LBRF1:1,2017-02-09T16:00:00Z,25.4840,-81.1330,1.0,23.7,11111222 
ENP,ioos.station.NOAA.NDBC:LBRF1:1,2017-02-09T17:00:00Z,25.4840,-81.1330,1.0,23.65,2 
ENP,ioos.station.NOAA.NDBC:LBRF1:1,2017-02-09T18:00:00Z,25.4840,-81.1330,1.0,24.1,11111222 
ENP,ioos.station.NOAA.NDBC:LBRF1:1,2017-02-09T19:00:00Z,25.4840,-81.1330,1.0,24.2,11111222 
ENP,ioos.station.NOAA.NDBC:LBRF1:1,2017-02-09T20:00:00Z,25.4840,-81.1330,1.0,24.5,11111222 
ENP,ioos.station.NOAA.NDBC:LBRF1:1,2017-02-09T21:00:00Z,25.4840,-81.1330,1.0,24.52,2 
ENP,ioos.station.NOAA.NDBC:LBRF1:1,2017-02-09T22:00:00Z,25.4840,-81.1330,1.0,24.6,11111222 
ENP,ioos.station.NOAA.NDBC:LBRF1:1,2017-02-09T23:00:00Z,25.4840,-81.1330,1.0,24.4,11111222 
ENP,ioos.station.NOAA.NDBC:LBRF1:1,2017-02-10T00:00:00Z,25.4840,-81.1330,1.0,24.16,2 
ENP,ioos.station.NOAA.NDBC:LBRF1:1,2017-02-10T01:00:00Z,25.4840,-81.1330,1.0,24.06,2 
ENP,ioos.station.NOAA.NDBC:LBRF1:1,2017-02-10T03:00:00Z,25.4840,-81.1330,1.0,24.1,11111222 
ENP,ioos.station.NOAA.NDBC:LBRF1:1,2017-02-10T04:00:00Z,25.4840,-81.1330,1.0,24.06,2 
ENP,ioos.station.NOAA.NDBC:LBRF1:1,2017-02-10T05:00:00Z,25.4840,-81.1330,1.0,24.1,11111222 
ENP,ioos.station.NOAA.NDBC:LBRF1:1,2017-02-10T06:00:00Z,25.4840,-81.1330,1.0,23.99,2 
ENP,ioos.station.NOAA.NDBC:LBRF1:1,2017-02-10T07:00:00Z,25.4840,-81.1330,1.0,24.13,2 
ENP,ioos.station.NOAA.NDBC:LBRF1:1,2017-02-10T08:00:00Z,25.4840,-81.1330,1.0,24.11,2 
ENP,ioos.station.NOAA.NDBC:LBRF1:1,2017-02-10T09:00:00Z,25.4840,-81.1330,1.0,23.9,2 
ENP,ioos.station.NOAA.NDBC:LBRF1:1,2017-02-10T10:00:00Z,25.4840,-81.1330,1.0,23.6,11111222 
ENP,ioos.station.NOAA.NDBC:LBRF1:1,2017-02-10T11:00:00Z,25.4840,-81.1330,1.0,23.46,2 
ENP,ioos.station.NOAA.NDBC:LBRF1:1,2017-02-10T12:00:00Z,25.4840,-81.1330,1.0,23.26,2 
ENP,ioos.station.NOAA.NDBC:LBRF1:1,2017-02-10T13:00:00Z,25.4840,-81.1330,1.0,23.16,2 
ENP,ioos.station.NOAA.NDBC:LBRF1:1,2017-02-10T14:00:00Z,25.4840,-81.1330,1.0,23.12,2 
ENP,ioos.station.NOAA.NDBC:LBRF1:1,2017-02-10T15:00:00Z,25.4840,-81.1330,1.0,23.14,2 
ENP,ioos.station.NOAA.NDBC:LBRF1:1,2017-02-10T16:00:00Z,25.4840,-81.1330,1.0,23.24,2 
ENP,ioos.station.NOAA.NDBC:LBRF1:1,2017-02-10T17:00:00Z,25.4840,-81.1330,1.0,23.26,2 
ENP,ioos.station.NOAA.NDBC:LBRF1:1,2017-02-10T18:00:00Z,25.4840,-81.1330,1.0,23.58,2 
ENP,ioos.station.NOAA.NDBC:LBRF1:1,2017-02-10T19:00:00Z,25.4840,-81.1330,1.0,23.67,2 
ENP,ioos.station.NOAA.NDBC:LBRF1:1,2017-02-10T20:00:00Z,25.4840,-81.1330,1.0,23.65,2 
ENP,ioos.station.NOAA.NDBC:LBRF1:1,2017-02-10T21:00:00Z,25.4840,-81.1330,1.0,23.2,11111222 
ENP,ioos.station.NOAA.NDBC:LBRF1:1,2017-02-10T22:00:00Z,25.4840,-81.1330,1.0,23.54,2 
ENP,ioos.station.NOAA.NDBC:LBRF1:1,2017-02-10T23:00:00Z,25.4840,-81.1330,1.0,23.76,2 
ENP,ioos.station.NOAA.NDBC:LBRF1:1,2017-02-11T00:00:00Z,25.4840,-81.1330,1.0,23.61,2 
ENP,ioos.station.NOAA.NDBC:LBRF1:1,2017-02-11T01:00:00Z,25.4840,-81.1330,1.0,23.48,2 
ENP,ioos.station.NOAA.NDBC:LBRF1:1,2017-02-11T02:00:00Z,25.4840,-81.1330,1.0,23.4,11111222 
ENP,ioos.station.NOAA.NDBC:LBRF1:1,2017-02-11T03:00:00Z,25.4840,-81.1330,1.0,23.5,2 
ENP,ioos.station.NOAA.NDBC:LBRF1:1,2017-02-11T04:00:00Z,25.4840,-81.1330,1.0,23.45,2 
ENP,ioos.station.NOAA.NDBC:LBRF1:1,2017-02-11T05:00:00Z,25.4840,-81.1330,1.0,23.05,2 
ENP,ioos.station.NOAA.NDBC:LBRF1:1,2017-02-11T06:00:00Z,25.4840,-81.1330,1.0,22.9,11111222 
ENP,ioos.station.NOAA.NDBC:LBRF1:1,2017-02-11T07:00:00Z,25.4840,-81.1330,1.0,22.21,2 
ENP,ioos.station.NOAA.NDBC:LBRF1:1,2017-02-11T08:00:00Z,25.4840,-81.1330,1.0,22.07,2 
ENP,ioos.station.NOAA.NDBC:LBRF1:1,2017-02-11T09:00:00Z,25.4840,-81.1330,1.0,22.06,2 
ENP,ioos.station.NOAA.NDBC:LBRF1:1,2017-02-11T10:00:00Z,25.4840,-81.1330,1.0,22.01,2 
ENP,ioos.station.NOAA.NDBC:LBRF1:1,2017-02-11T11:00:00Z,25.4840,-81.1330,1.0,22.2,11111222 
ENP,ioos.station.NOAA.NDBC:LBRF1:1,2017-02-11T12:00:00Z,25.4840,-81.1330,1.0,22.6,11111222 
ENP,ioos.station.NOAA.NDBC:LBRF1:1,2017-02-11T13:00:00Z,25.4840,-81.1330,1.0,22.67,2 
ENP,ioos.station.NOAA.NDBC:LBRF1:1,2017-02-11T14:00:00Z,25.4840,-81.1330,1.0,22.77,2 
ENP,ioos.station.NOAA.NDBC:LBRF1:1,2017-02-11T15:00:00Z,25.4840,-81.1330,1.0,22.81,2 
ENP,ioos.station.NOAA.NDBC:LBRF1:1,2017-02-11T16:00:00Z,25.4840,-81.1330,1.0,22.91,2 
ENP,ioos.station.NOAA.NDBC:LBRF1:1,2017-02-11T17:00:00Z,25.4840,-81.1330,1.0,23.14,2 
ENP,ioos.station.NOAA.NDBC:LBRF1:1,2017-02-11T18:00:00Z,25.4840,-81.1330,1.0,23.25,2 
ENP,ioos.station.NOAA.NDBC:LBRF1:1,2017-02-11T19:00:00Z,25.4840,-81.1330,1.0,23.19,2 
ENP,ioos.station.NOAA.NDBC:LBRF1:1,2017-02-11T20:00:00Z,25.4840,-81.1330,1.0,22.96,2 
ENP,ioos.station.NOAA.NDBC:LBRF1:1,2017-02-11T21:00:00Z,25.4840,-81.1330,1.0,22.9,2 
ENP,ioos.station.NOAA.NDBC:LBRF1:1,2017-02-11T22:00:00Z,25.4840,-81.1330,1.0,22.9,11111222 
ENP,ioos.station.NOAA.NDBC:LBRF1:1,2017-02-11T23:00:00Z,25.4840,-81.1330,1.0,23.06,2 
ENP,ioos.station.NOAA.NDBC:LBRF1:1,2017-02-12T00:00:00Z,25.4840,-81.1330,1.0,23.23,2 
ENP,ioos.station.NOAA.NDBC:LBRF1:1,2017-02-12T01:00:00Z,25.4840,-81.1330,1.0,23.41,2 
ENP,ioos.station.NOAA.NDBC:LBRF1:1,2017-02-12T02:00:00Z,25.4840,-81.1330,1.0,23.48,2 
ENP,ioos.station.NOAA.NDBC:LBRF1:1,2017-02-12T03:00:00Z,25.4840,-81.1330,1.0,23.4,11111222 
ENP,ioos.station.NOAA.NDBC:LBRF1:1,2017-02-12T04:00:00Z,25.4840,-81.1330,1.0,23.41,2 
ENP,ioos.station.NOAA.NDBC:LBRF1:1,2017-02-12T05:00:00Z,25.4840,-81.1330,1.0,23.3,11111222 
ENP,ioos.station.NOAA.NDBC:LBRF1:1,2017-02-12T06:00:00Z,25.4840,-81.1330,1.0,22.73,2 
ENP,ioos.station.NOAA.NDBC:LBRF1:1,2017-02-12T07:00:00Z,25.4840,-81.1330,1.0,22.3,11111222 
ENP,ioos.station.NOAA.NDBC:LBRF1:1,2017-02-12T08:00:00Z,25.4840,-81.1330,1.0,22.27,2 
ENP,ioos.station.NOAA.NDBC:LBRF1:1,2017-02-12T09:00:00Z,25.4840,-81.1330,1.0,22.3,11111222 
ENP,ioos.station.NOAA.NDBC:LBRF1:1,2017-02-12T10:00:00Z,25.4840,-81.1330,1.0,22.23,2 
ENP,ioos.station.NOAA.NDBC:LBRF1:1,2017-02-12T14:00:00Z,25.4840,-81.1330,1.0,22.5,11111222 
ENP,ioos.station.NOAA.NDBC:LBRF1:1,2017-02-12T15:00:00Z,25.4840,-81.1330,1.0,22.9,11111222 
ENP,ioos.station.NOAA.NDBC:LBRF1:1,2017-02-12T16:00:00Z,25.4840,-81.1330,1.0,22.92,2 
ENP,ioos.station.NOAA.NDBC:LBRF1:1,2017-02-12T17:00:00Z,25.4840,-81.1330,1.0,23.01,2 
ENP,ioos.station.NOAA.NDBC:LBRF1:1,2017-02-12T18:00:00Z,25.4840,-81.1330,1.0,23.4,11111222 
ENP,ioos.station.NOAA.NDBC:LBRF1:1,2017-02-12T19:00:00Z,25.4840,-81.1330,1.0,23.18,2 
ENP,ioos.station.NOAA.NDBC:LBRF1:1,2017-02-12T20:00:00Z,25.4840,-81.1330,1.0,23.7,11111222 
ENP,ioos.station.NOAA.NDBC:LBRF1:1,2017-02-12T21:00:00Z,25.4840,-81.1330,1.0,23.5,11111222 
ENP,ioos.station.NOAA.NDBC:LBRF1:1,2017-02-12T22:00:00Z,25.4840,-81.1330,1.0,23.58,2 
ENP,ioos.station.NOAA.NDBC:LBRF1:1,2017-02-12T23:00:00Z,25.4840,-81.1330,1.0,23.57,2 
ENP,ioos.station.NOAA.NDBC:LBRF1:1,2017-02-13T00:00:00Z,25.4840,-81.1330,1.0,23.6,11111222 
ENP,ioos.station.NOAA.NDBC:LBRF1:1,2017-02-13T01:00:00Z,25.4840,-81.1330,1.0,23.53,2 
ENP,ioos.station.NOAA.NDBC:LBRF1:1,2017-02-13T03:00:00Z,25.4840,-81.1330,1.0,23.4,11111222 